Location: Praha
(50.0830°N, 14.4670°E)
Time: 16:38:56
(UTC+01:00)

ISS - Visible Passes

Search period start: 02 December 2023 00:00
Search period end: 12 December 2023 00:00
Orbit: 415 x 417 km, 51.6° (Epoch: 02 December)

Date Brightness Start Highest point End Pass type
(mag) Time Alt. Az. Time Alt. Az. Time Alt. Az.
02 Dec -3.3 17:29:26 10° WNW 17:32:45 59° SSW 17:35:28 14° SE visible
02 Dec -0.7 19:07:07 10° WSW 19:08:23 14° SW 19:08:23 14° SW visible
03 Dec -3.6 16:40:56 10° WNW 16:44:18 79° SSW 16:47:39 10° ESE visible
03 Dec -1.3 18:18:05 10° W 18:20:41 21° SW 18:22:29 14° S visible
04 Dec -1.9 17:29:18 10° W 17:32:17 30° SSW 17:35:16 10° SSE visible
05 Dec -2.5 16:40:35 10° W 16:43:48 43° SSW 16:47:00 10° SE visible
06 Dec -0.7 17:29:26 10° WSW 17:31:26 15° SW 17:33:25 10° S visible
07 Dec -1.0 16:40:14 10° W 16:42:54 22° SW 16:45:35 10° SSE visible
09 Dec 0.2 16:40:58 10° WSW 16:41:37 10° SW 16:42:17 10° SW visible
